TimeEDT,TemperatureF,Dew PointF,Humidity,Sea Level PressureIn,VisibilityMPH,Wind Direction,Wind SpeedMPH,Gust SpeedMPH,PrecipitationIn,Events,Conditions,WindDirDegrees,DateUTC
12:53 AM,78.1,73.0,84,29.99,10.0,ESE,16.1,-,N/A,,Clear,120,2013-04-11 04:53:00
1:53 AM,78.1,73.0,84,29.96,10.0,SE,13.8,-,N/A,,Clear,130,2013-04-11 05:53:00
2:53 AM,78.1,73.0,84,29.94,10.0,SE,13.8,-,N/A,,Clear,130,2013-04-11 06:53:00
3:53 AM,78.1,73.0,84,29.92,10.0,SE,13.8,-,N/A,,Partly Cloudy,130,2013-04-11 07:53:00
4:53 AM,79.0,72.0,79,29.91,10.0,SE,15.0,-,N/A,,Mostly Cloudy,130,2013-04-11 08:53:00
5:18 AM,78.8,71.6,78,29.91,10.0,SE,13.8,-,N/A,,Scattered Clouds,130,2013-04-11 09:18:00
5:53 AM,79.0,73.0,82,29.91,10.0,SE,17.3,-,N/A,,Mostly Cloudy,130,2013-04-11 09:53:00
6:53 AM,79.0,73.0,82,29.93,10.0,SE,15.0,-,N/A,,Overcast,130,2013-04-11 10:53:00
7:14 AM,78.8,73.4,83,29.93,10.0,SE,16.1,-,N/A,,Mostly Cloudy,130,2013-04-11 11:14:00
7:27 AM,78.8,73.4,83,29.93,10.0,SE,15.0,-,N/A,,Mostly Cloudy,130,2013-04-11 11:27:00
7:53 AM,79.0,73.0,82,29.94,10.0,SE,16.1,-,N/A,,Scattered Clouds,130,2013-04-11 11:53:00
8:53 AM,80.1,73.0,79,29.95,10.0,SE,17.3,-,N/A,,Partly Cloudy,130,2013-04-11 12:53:00
9:53 AM,81.0,73.9,79,29.96,10.0,SE,17.3,-,N/A,,Clear,130,2013-04-11 13:53:00
10:53 AM,81.0,73.9,79,29.97,10.0,SE,12.7,-,N/A,,Scattered Clouds,140,2013-04-11 14:53:00
11:53 AM,82.0,75.0,79,29.97,10.0,SE,13.8,-,N/A,,Clear,130,2013-04-11 15:53:00
12:53 PM,82.4,75.2,79,29.95,10.0,SE,15.0,-,N/A,,Partly Cloudy,130,2013-04-11 16:53:00
1:53 PM,84.0,75.0,74,29.94,10.0,ESE,16.1,-,N/A,,Clear,120,2013-04-11 17:53:00
2:53 PM,84.0,75.0,74,29.92,10.0,ESE,16.1,-,N/A,,Clear,120,2013-04-11 18:53:00
3:53 PM,82.9,75.0,77,29.89,10.0,ESE,13.8,23.0,N/A,,Clear,120,2013-04-11 19:53:00
4:53 PM,82.9,73.9,74,29.88,10.0,ESE,15.0,-,N/A,,Clear,110,2013-04-11 20:53:00
5:53 PM,81.0,73.9,79,29.87,10.0,ESE,16.1,-,N/A,,Mostly Cloudy,110,2013-04-11 21:53:00
6:53 PM,81.0,73.9,79,29.87,10.0,ESE,13.8,23.0,N/A,,Mostly Cloudy,120,2013-04-11 22:53:00
7:53 PM,80.1,73.9,81,29.89,9.0,SE,18.4,-,0.00,Rain,Light Rain,130,2013-04-11 23:53:00
8:53 PM,79.0,75.0,88,29.89,10.0,SE,10.4,-,0.02,,Overcast,130,2013-04-12 00:53:00
9:53 PM,79.0,75.0,88,29.91,10.0,SE,12.7,-,N/A,,Mostly Cloudy,140,2013-04-12 01:53:00
10:53 PM,79.0,73.9,84,29.92,10.0,SE,15.0,-,0.00,,Mostly Cloudy,140,2013-04-12 02:53:00
11:53 PM,80.1,73.9,81,29.90,10.0,SSE,17.3,-,N/A,,Scattered Clouds,150,2013-04-12 03:53:00